This is the latest recevied weather packets stored in our database for station/object N4ZIQ. If no packets are shown the sender has not sent any weather packets the latest 10 day(s).
| Time | Temp. | Humidity | Pressure | Rain* | Wind** | Luminosity | Snow |
|---|---|---|---|---|---|---|---|
| 1777550453 | 21.67° C | 95% | 1012.7 hPa | 0 mm | - | 79 W/m² | - |
| 1777550148 | 21.67° C | 95% | 1012.5 hPa | 0 mm | - | 83 W/m² | - |
| 1777549846 | 21.67° C | 95% | 1012.7 hPa | 0 mm | - | 65 W/m² | - |
| 1777549550 | 21.67° C | 96% | 1012.6 hPa | 0 mm | - | 60 W/m² | - |
| 1777549246 | 21.11° C | 95% | 1012.6 hPa | 0 mm | - | 58 W/m² | - |
| 1777548948 | 21.11° C | 96% | 1012.6 hPa | 0 mm | - | 56 W/m² | - |
| 1777548652 | 21.11° C | 96% | 1012.5 hPa | 0 mm | - | 56 W/m² | - |
| 1777548345 | 21.11° C | 96% | 1012.4 hPa | 0 mm | - | 44 W/m² | - |
| 1777548047 | 20.56° C | 96% | 1012.4 hPa | 0 mm | - | 40 W/m² | - |
| 1777547757 | 20.56° C | 96% | 1012.3 hPa | 0 mm | - | 37 W/m² | - |
| 1777547448 | 19.44° C | 95% | 1012.1 hPa | 0 mm | - | 30 W/m² | - |
| 1777547147 | 18.89° C | 95% | 1012 hPa | 0 mm | - | 23 W/m² | - |
| 1777546851 | 18.89° C | 95% | 1012 hPa | 0 mm | - | 18 W/m² | - |
| 1777546548 | 19.44° C | 95% | 1011.8 hPa | 0 mm | - | 9 W/m² | - |
| 1777546248 | 18.89° C | 95% | 1011.7 hPa | 0 mm | - | 0 W/m² | - |
| 1777545951 | 18.89° C | 95% | 1011.8 hPa | 0 mm | - | 0 W/m² | - |
| 1777545647 | 18.89° C | 95% | 1011.9 hPa | 0 mm | - | 0 W/m² | - |
| 1777545348 | 18.89° C | 95% | 1011.8 hPa | 0 mm | - | 0 W/m² | - |
| 1777545060 | 18.33° C | 95% | 1011.9 hPa | 0 mm | - | 0 W/m² | - |
| 1777544748 | 18.33° C | 95% | 1012.1 hPa | 0 mm | - | 0 W/m² | - |
| 1777544447 | 18.33° C | 95% | 1011.9 hPa | 0 mm | - | 0 W/m² | - |
| 1777544153 | 18.33° C | 95% | 1011.9 hPa | 0 mm | - | 0 W/m² | - |
| 1777543846 | 18.33° C | 95% | 1011.9 hPa | 0 mm | - | 0 W/m² | - |
| 1777543546 | 18.33° C | 95% | 1011.9 hPa | 0 mm | - | 0 W/m² | - |
| 1777543248 | 18.33° C | 95% | 1011.8 hPa | 0 mm | - | 0 W/m² | - |
* Rain latest hour (hover to see other rain measurements)
** Current wind speed in m/s (hover to see current wind gust speed)